星链-30071 (STARLINK-30071 )

导读 | 豆包AI

STARLINK-30071是美国SpaceX星链卫星互联网项目的卫星,于2023年5月19日发射升空。它属于星链低轨星座部署的一部分,旨在为全球提供高速卫星互联网接入服务,尤其覆盖偏远和网络基础设施匮乏区域。作为星链扩容批次卫星,它延续了项目扁平化设计与批量发射部署思路,推进低轨通信星座组网进程,服务全球商业、民用甚至特殊场景的网络需求。

基本信息
目录编号:
56708
目录名称:
STARLINK-30071
国际标识:
2023-067W
轨道中心:
EARTH
卫星名称:
星链-30071
卫星全名:
星链-30071 (STARLINK-30071 )
卫星状态:
在轨 (已飞行1077 天)
发射日期:
2023-05-19 UTC
国别 :
美国 (US)
星等 :
--
轨道信息
数据来源 国际轨道数据 AOE轨道数据
星历时间 2026-04-30T07:47:01+0800
15小时前
查看轨道信息
2026-04-29T17:00:00+0800
1天前
查看轨道信息
半长轴 6861.172km 6861.157km
偏心率 0.0001564 0.0000401
轨道倾角 43.005° 43.005°
近地点辐角 270.995° 126.755°
升交点赤经 344.935° 348.413°
平近点角 89.072° 81.873°
近地点 481.961km 482.744km
远地点 484.109km 483.296km
周期 94.266分钟 94.266分钟
每日圈数 15.275849 15.275898
详细信息
固有亮度:
5
最大亮度:
0.3
卫星平台:
Starlink v2.0 mini
覆盖范围:
全球
运营商:
太空探索技术公司
运营商所在国:
美国
制造商(研发单位):
太空探索技术公司
制造商所在国:
美国
使用方式:
暂无
卫星简介
星链(Starlink)计划是由太空探索技术公司(SpaceX)提出的一个巨型低轨卫星互联网星座项目,计划在2019年至2024年间在太空搭建由约1.2万颗卫星组成的“星链”网络,其中1584颗将部署在地球上空550千米处的近地轨道,并从2020年开始工作。该卫星仍在工作。
2D轨道图
3D轨道图
轨道高度分析图
轨道倾角分析图
轨道综合分析图
查看轨道综合分析图